EHI
23 26 30 36 45 48 47 45 40 34 28 26 27 28 30 29 27 26 27 25 21 17 15 14 14 12 7 5 4 3 3 4 5 4 3 3 4 5 6 6 4 2 1
22 25 30 35 42 45 45 43 39 33 27 25 26 27 28 27 26 26 26 24 21 17 14 13 14 12 8 6 4 3 3 3 4 4 3 2 3 4 5 6 5 4 4
21 24 28 31 35 39 41 39 37 33 27 26 27 27 26 25 25 25 24 22 20 18 15 13 13 11 9 8 6 4 4 4 3 3 3 3 4 5 5 4 4 5 6
17 21 25 26 28 31 35 36 36 33 28 26 26 26 24 23 23 23 24 22 20 18 16 15 15 12 9 8 7 6 5 6 5 4 4 4 6 7 5 3 2 3 4
14 18 23 24 23 25 29 33 35 32 28 25 24 24 22 20 19 22 24 24 22 19 16 16 16 14 9 7 8 8 8 9 8 7 6 6 8 8 5 2 0 1 1
12 16 20 22 21 20 24 29 32 32 28 24 22 22 21 21 20 20 22 23 22 19 15 15 16 15 10 7 7 9 10 10 9 8 7 6 7 7 4 1 0 0 0
12 13 17 20 20 19 21 25 29 30 27 24 23 22 22 22 20 19 19 21 20 17 15 15 16 15 12 8 7 8 9 8 6 5 4 4 5 5 3 1 0 0 0
11 11 13 16 19 20 22 24 27 28 26 23 23 23 22 20 19 19 19 19 17 15 15 15 14 14 12 8 7 8 7 5 4 2 2 2 4 4 3 2 1 0 0
9 10 10 12 15 19 22 24 27 27 24 22 21 21 21 20 19 19 19 19 18 15 15 14 12 11 10 8 8 8 6 4 3 3 2 3 4 5 5 4 2 1 0
6 7 9 11 13 15 18 21 25 27 25 21 20 19 20 20 17 17 17 18 17 14 12 12 11 10 10 9 10 9 7 4 3 3 3 3 4 4 4 3 2 1 0
2 4 7 10 11 13 15 19 23 24 22 19 17 17 18 17 14 12 13 13 12 10 8 9 9 9 10 11 10 9 5 2 1 2 2 2 2 2 1 1 1 0 0
2 3 7 9 10 11 14 18 20 19 15 13 14 15 14 13 11 9 9 8 7 5 5 6 8 8 9 9 9 6 2 0 0 0 0 1 1 0 0 0 0 0 0
4 5 7 8 9 10 13 16 17 15 12 11 13 13 12 9 8 8 7 5 4 3 3 4 6 6 6 7 6 4 1 0 0 0 0 0 0 0 0 0 0 0 0
6 6 8 9 9 9 11 13 15 14 13 12 12 13 11 9 8 7 6 4 3 3 3 4 4 5 4 5 5 3 1 0 0 1 1 0 0 0 0 0 0 0 0
5 6 10 11 10 10 10 12 13 14 14 12 10 11 12 10 8 7 6 5 4 3 3 4 4 4 4 4 3 2 0 0 0 1 2 1 0 0 0 0 0 0 0
4 6 11 13 12 11 11 11 11 11 11 9 7 8 10 10 9 6 5 5 5 4 4 4 4 4 3 2 1 0 0 0 0 1 1 1 0 0 0 0 0 0 0
8 11 13 14 14 13 12 10 8 8 8 7 5 5 7 8 9 6 4 5 6 5 4 4 4 4 3 1 0 0 0 0 0 0 0 0 0 0 0 0 0 0 0
14 16 16 15 14 13 11 8 6 6 6 5 4 4 5 7 8 6 5 6 6 6 5 5 5 5 3 1 0 0 0 0 0 0 0 0 0 0 0 0 0 0 0
16 17 15 13 13 11 8 6 5 4 4 4 4 4 5 5 6 7 7 7 6 6 7 7 7 5 3 1 0 0 0 0 0 0 0 0 0 0 0 0 0 0 0
15 15 13 11 11 9 7 5 4 4 3 3 4 4 4 4 5 8 9 8 7 7 7 7 7 5 3 1 0 0 0 0 0 0 0 0 0 0 0 0 0 1 1
13 12 11 11 12 10 8 6 5 4 4 3 3 3 4 5 6 8 10 9 7 6 6 5 5 5 4 2 0 0 0 0 0 0 0 0 0 0 0 0 0 0 0
12 11 11 13 14 12 10 8 7 6 5 4 4 4 5 5 6 8 9 9 7 5 4 3 4 4 4 2 0 0 0 0 0 0 0 0 0 0 0 0 0 0 0
9 10 12 13 14 13 11 11 10 8 6 5 5 6 6 6 6 7 8 8 6 3 1 2 3 3 3 2 1 0 0 0 0 0 0 0 0 0 0 0 0 0 0
7 9 10 11 12 11 11 12 12 10 7 5 5 6 6 7 7 8 7 6 4 1 0 1 3 3 3 2 1 0 0 0 0 0 0 0 0 0 0 0 0 0 0
7 9 10 10 9 9 10 11 11 10 8 5 4 4 5 7 8 8 6 4 2 1 0 1 2 2 2 2 1 0 0 0 0 0 0 0 0 0 0 0 0 0 0
8 11 12 9 8 8 9 10 10 10 9 5 3 4 5 6 7 7 4 2 1 0 0 0 1 1 1 1 0 0 0 0 0 0 0 0 0 0 0 0 0 0 0
Wind_Speed
6 6 6 6 6 7 7 6 6 5 4 3 3 3 2 3 3 3 4 4 2 2 1 1 1 1 1 1 1 1 2 2 1 1 1 1 2 2 2 1 1 1 2
6 6 6 6 6 7 7 6 6 5 4 3 3 2 2 3 3 3 4 4 3 2 2 2 1 1 1 1 1 1 1 2 1 1 1 1 1 2 2 2 2 2 1
6 6 7 6 7 7 7 6 5 5 4 4 3 2 2 1 2 4 4 4 4 3 2 1 1 1 2 2 2 2 2 1 1 1 1 1 1 1 1 2 2 2 1
7 7 7 7 7 7 7 6 5 4 4 3 3 3 3 2 2 2 3 4 4 3 3 2 2 2 2 2 2 1 1 1 1 2 1 1 0 1 1 2 2 3 2
6 7 7 7 8 8 8 7 6 5 4 4 4 3 2 2 2 2 3 3 3 3 4 4 3 3 2 2 2 2 2 1 2 2 2 2 2 2 2 2 2 2 2
5 6 7 8 7 7 7 8 7 5 5 4 4 3 2 2 2 2 3 3 2 3 3 3 3 3 2 2 2 2 3 2 2 2 2 2 2 2 2 2 2 2 3
5 6 7 8 7 7 7 7 7 6 5 5 4 4 3 3 3 2 2 2 2 2 3 3 3 2 2 3 2 3 3 3 3 3 3 2 2 2 2 2 2 2 2
4 6 6 6 7 7 7 7 7 6 5 5 4 3 3 3 2 2 2 1 1 1 2 2 2 3 3 3 3 3 3 3 2 3 3 2 2 2 1 1 2 3 2
4 6 6 5 6 6 6 6 6 5 5 5 4 3 3 2 2 2 2 1 1 1 1 1 2 2 3 3 2 2 3 3 3 2 2 2 2 1 1 1 1 1 2
4 5 6 5 5 5 5 5 5 5 5 4 4 4 3 2 2 2 2 1 1 1 1 1 2 2 3 3 3 2 2 3 3 2 2 2 1 1 1 1 1 1 1
4 5 6 5 5 5 5 5 5 5 5 5 4 3 3 2 2 2 1 1 1 1 2 2 2 3 3 3 3 2 2 2 2 2 2 2 1 1 1 1 1 1 1
3 4 6 6 5 5 5 5 4 5 5 4 4 3 2 2 2 2 1 1 2 2 2 2 2 3 3 3 3 3 3 3 3 3 2 2 1 1 1 1 2 2 1
2 3 5 5 5 5 4 4 4 4 4 4 4 4 3 2 2 2 2 2 2 2 3 2 2 2 2 3 3 3 3 3 3 3 3 2 2 2 1 2 2 2 2
3 3 4 4 4 4 4 4 5 4 4 4 4 3 3 3 2 2 2 2 2 3 3 3 3 2 3 2 2 2 2 2 2 2 3 2 2 2 2 3 2 2 2
3 4 3 3 4 4 4 4 4 4 4 4 4 4 3 3 3 2 3 2 3 3 3 3 3 3 3 2 2 2 2 2 2 2 2 2 2 3 2 2 1 1 1
3 3 3 3 3 3 3 3 3 4 4 3 4 4 4 4 3 3 3 2 3 3 3 3 3 3 2 2 2 1 2 2 2 2 2 2 4 3 3 3 3 3 3
3 3 3 2 2 2 2 2 2 3 3 3 3 3 3 3 3 3 3 3 2 2 2 3 2 2 2 3 2 1 2 3 3 3 3 3 2 3 2 3 4 5 6
3 2 2 2 2 2 2 2 2 2 3 3 3 3 3 3 2 2 2 2 1 2 2 3 2 2 3 3 3 2 3 3 3 3 3 2 1 2 2 2 3 4 4
3 3 2 2 2 1 1 1 1 2 2 3 3 3 3 3 3 3 2 2 2 3 3 3 3 2 3 3 4 4 3 3 3 3 3 4 3 3 3 3 3 3 3
3 3 2 2 1 1 1 1 2 2 3 3 3 2 2 2 2 2 2 2 2 3 3 3 3 3 4 5 5 5 3 3 3 3 4 5 5 5 4 4 3 4 4
3 3 2 1 1 1 2 2 2 2 3 3 3 2 2 2 3 2 2 3 3 3 3 2 2 3 4 6 6 6 4 3 3 2 2 3 6 6 6 5 4 6 5
3 2 2 2 2 2 2 2 2 2 2 2 3 2 2 3 3 3 3 3 3 3 3 3 3 3 4 5 5 6 6 5 3 3 1 2 5 5 6 5 6 6 5
2 1 1 2 2 2 2 3 2 2 2 2 2 2 3 2 2 3 4 3 3 4 4 4 4 4 4 4 6 7 7 6 3 2 1 3 5 5 5 8 9 6 4
1 1 1 2 2 3 3 3 2 2 2 3 3 3 3 3 3 3 4 4 4 4 4 4 3 3 3 3 3 3 3 4 4 3 3 5 8 7 6 5 5 5 5
1 2 2 3 3 3 3 3 3 3 3 3 3 4 4 4 4 4 3 4 2 2 3 2 2 2 3 4 5 4 3 2 2 2 3 4 4 4 4 4 5 5 5
1 2 3 4 3 3 3 3 3 3 3 4 5 4 4 4 4 4 4 4 4 4 4 4 4 2 4 6 5 4 3 3 2 2 3 3 4 4 4 3 3 3 3
Wind_Direction
165 153 150 150 142 139 145 153 154 152 161 159 170 170 166 161 155 152 144 149 160 158 159 159 165 167 146 165 205 198 227 242 229 233 262 239 198 181 200 203 233 231 216
159 151 150 146 144 143 144 152 156 160 172 160 165 167 173 178 157 142 143 159 160 169 174 158 166 151 164 185 217 247 238 247 223 208 243 236 228 245 215 195 202 226 229
160 160 163 158 154 151 150 154 155 157 169 167 161 158 149 188 158 155 158 164 166 166 170 166 187 178 184 176 216 227 240 245 244 216 214 226 228 232 228 230 204 204 240
154 157 165 164 162 154 149 142 145 148 161 171 170 173 166 181 177 160 157 161 167 172 183 192 203 201 203 198 210 181 245 247 247 240 234 234 323 221 241 244 221 210 211
151 157 164 161 158 154 148 146 147 150 157 172 169 179 186 177 169 158 150 163 174 185 193 197 202 207 211 197 202 210 231 245 250 252 262 257 243 231 222 244 242 237 225
151 150 151 150 155 155 152 151 151 153 157 170 176 180 189 181 171 169 170 181 179 193 202 205 204 200 208 204 207 215 223 239 262 265 252 248 247 248 242 241 240 239 236
134 136 148 154 160 158 153 153 153 157 165 171 179 184 196 198 194 200 206 200 195 193 198 214 200 197 215 216 217 220 221 230 249 263 263 252 252 255 257 260 257 254 240
135 138 141 150 159 157 153 152 155 158 168 175 178 187 196 211 205 202 220 220 236 235 191 200 200 201 218 227 223 221 221 226 236 254 275 271 263 266 259 267 274 277 267
161 137 133 140 146 150 151 155 153 160 169 174 172 185 191 203 214 208 208 231 246 253 205 212 215 216 218 218 219 220 224 226 230 233 255 277 277 280 277 268 261 262 284
154 135 135 133 133 140 142 150 153 162 166 173 182 187 180 191 204 208 207 203 219 262 239 233 226 226 230 224 220 216 220 219 220 215 225 254 279 302 296 277 271 258 251
146 139 138 139 135 141 150 154 156 162 169 173 172 174 172 190 196 191 199 195 206 226 236 234 232 227 221 219 219 214 211 217 220 224 221 243 262 293 305 307 290 285 265
146 145 142 144 143 148 153 156 165 170 171 171 165 168 164 167 164 174 194 207 217 238 244 237 234 231 220 210 214 220 219 216 213 214 210 230 253 266 281 291 295 289 266
124 139 143 150 152 152 153 157 167 168 165 168 168 164 160 163 177 195 203 218 228 242 243 237 240 237 222 211 216 214 216 219 219 216 215 216 222 248 261 269 276 281 283
150 134 139 149 149 151 157 167 171 168 165 163 168 165 173 179 193 212 216 228 233 243 238 227 230 238 231 216 209 194 206 221 220 217 220 216 216 233 249 254 258 269 299
144 140 137 142 151 161 166 175 175 168 164 167 176 179 177 184 194 212 225 234 240 247 240 222 224 227 224 208 193 202 207 207 219 223 218 214 195 209 227 260 278 284 283
157 148 143 136 148 160 167 165 170 161 161 179 185 184 184 186 195 209 220 228 240 245 245 237 230 236 228 157 165 213 210 214 214 224 225 202 196 190 205 238 248 237 238
152 145 141 142 145 156 149 156 161 153 159 180 197 184 189 193 196 208 208 222 240 248 245 237 229 208 167 163 165 211 230 221 216 217 223 245 211 164 203 228 246 254 241
106 117 132 136 130 129 141 154 168 164 177 190 202 192 195 204 207 214 221 229 243 255 254 245 222 189 179 177 181 209 222 228 220 221 214 217 221 219 240 249 240 240 240
103 112 120 128 133 146 148 154 175 178 196 207 207 204 201 209 214 218 221 223 245 246 241 237 211 191 173 187 193 204 219 221 226 227 211 209 212 205 223 244 260 265 257
103 115 132 141 147 145 153 188 197 205 220 220 216 212 208 213 226 226 225 230 248 250 244 228 210 192 180 193 203 212 226 221 227 226 210 208 209 200 210 226 243 258 268
115 123 140 156 169 168 175 208 220 234 237 224 220 214 208 211 221 225 226 234 248 251 242 226 215 193 187 190 204 211 226 237 237 235 219 201 189 201 217 231 237 246 259
121 145 176 177 171 176 190 215 232 245 248 238 227 216 208 229 230 220 232 236 248 245 229 222 226 210 190 190 202 210 225 252 254 249 237 189 195 211 226 234 244 256 265
137 170 211 191 182 187 206 219 228 237 243 246 240 236 228 226 226 229 229 228 230 242 232 222 219 212 194 182 193 208 230 249 256 269 257 230 232 238 240 239 240 243 245
173 208 239 229 221 212 218 223 227 234 234 242 244 243 236 232 228 235 232 233 228 237 241 229 223 206 180 171 178 195 220 236 245 257 258 242 238 241 250 246 231 227 234
213 225 235 241 239 228 222 219 216 222 239 244 243 245 241 236 233 234 244 243 244 233 250 259 241 211 196 192 188 196 216 229 230 236 238 235 228 228 230 230 225 222 226
252 251 248 246 241 239 230 220 219 219 229 244 243 240 244 241 230 226 232 241 232 227 230 230 228 216 174 164 168 183 202 220 210 223 244 248 246 245 247 242 233 227 229